Regional Weather Roundup
Issued by NWS

Home | Current Version | Previous Version | Text Only | Print | Product List | Glossary On
Versions: 1 2 3 4 5 6 7 8 9 10 11 12 13 14 15 16 17 18 19 20 21 22 23 24 25 26 27 28 29 30 31 32 33 34 35 36 37 38 39 40 41 42 43 44 45 46 47 48 49 50
000
ASUS45 KPSR 180810
RWRAZ

ARIZONA REGIONAL HOURLY WEATHER ROUNDUP
NATIONAL WEATHER SERVICE PHOENIX AZ
100 AM MST FRI APR 18 2014

NOTE: FAIR INDICATES FEW OR NO CLOUDS BELOW 12,000 FEET WITH NO
SIGNIFICANT WEATHER AND/OR OBSTRUCTIONS TO VISIBILITY.

AZZ001>003-036-180900-
NORTHWEST ARIZONA

CITY           SKY/WX    TMP DP  RH WIND       PRES   REMARKS
BULLHEAD CITY  CLOUDY    75  25  15 S5        29.78F
KINGMAN        MOCLDY    60  17  18 S8        29.91F
$$

AZZ004>008-015-016-018-180900-
NORTH CENTRAL ARIZONA

CITY           SKY/WX    TMP DP  RH WIND       PRES   REMARKS
GRAND CANYON   MOCLDY    35  14  42 CALM      30.12F
WILLIAMS       MOCLDY    45  16  31 SE8       30.16F
PRESCOTT       MOCLDY    52  23  32 S8        30.02F
FLAGSTAFF      MOCLDY    37  19  48 CALM      30.13F
PAYSON         MOCLDY    54  19  26 CALM      30.06F
PAGE           PTCLDY    69  21  16 SW5       29.96R
$$

AZZ009>014-017-180900-
NORTHEAST ARIZONA

CITY           SKY/WX    TMP DP  RH WIND       PRES   REMARKS
WINSLOW        MOCLDY    54  23  30 CALM      30.03F
SAINT JOHNS    PTCLDY    53  19  26 S7        30.08S
WINDOW ROCK    CLEAR     42  18  37 VRB3      30.15S
SHOW LOW       PTCLDY    48  16  27 SE7       30.13F
$$

AZZ023-180900-
GREATER PHOENIX AREA

CITY           SKY/WX    TMP DP  RH WIND       PRES   REMARKS
PHOENIX        MOCLDY    78  33  19 NW13      29.81F
BUCKEYE          N/A     66  27  22 N3        29.85S
LUKE AFB       NOT AVBL
DEER VALLEY    MOCLDY    73  29  19 W6        29.84S
SCOTTSDALE     MOCLDY    74  31  20 N3        29.86S
MESA-GATEWAY   MOCLDY    68  30  24 SE7       29.86S
$$

AZZ027-028-180900-
SOUTHWEST MARICOPA COUNTY AND PINAL COUNTY

CITY           SKY/WX    TMP DP  RH WIND       PRES   REMARKS
CASA GRANDE    CLOUDY    70  28  21 SW3       29.86S
$$

AZZ503-504-507>509-180900-
SOUTHEAST ARIZONA

CITY           SKY/WX    TMP DP  RH WIND       PRES   REMARKS
TUCSON         CLOUDY    70  30  22 SW5       29.94S
DAVIS-MONTHAN  CLOUDY    67  31  25 S3        29.93S
NOGALES        CLOUDY    64  29  26 S3        30.01R
SIERRA VISTA   CLOUDY    64  23  20 N3        30.03F
DOUGLAS        CLOUDY    63  18  17 E6        30.01F
SAFFORD        MOCLDY    66  11  11 E8        29.94R
$$

AZZ020-021-025-026-031-180900-
SOUTHWEST ARIZONA

CITY           SKY/WX    TMP DP  RH WIND       PRES   REMARKS
YUMA           PTCLDY    71  49  45 SE12      29.78F
$$

CAZ031-033-041-043-047-048-061-180900-
SOUTHERN CALIFORNIA

CITY           SKY/WX    TMP DP  RH WIND       PRES   REMARKS
DOWNTOWN L.A.  CLOUDY    62  53  72 VRB3      29.90S
L.A. AIRPORT   CLOUDY    61  53  75 E6        29.90F
SAN DIEGO      CLOUDY    62  52  69 SW6       29.92F
BURBANK        CLOUDY    59  52  77 CALM      29.90S
ONTARIO        CLOUDY    59  53  80 W8        29.91S
RIVERSIDE      CLOUDY    59  53  80 W6        29.91S
PALM SPRINGS   MOCLDY    69  53  56 NW14      29.81S
EL CENTRO NAS  CLOUDY    66  53  63 E7        29.75F
IMPERIAL       CLOUDY    68  55  63 SE8       29.76S
BLYTHE         MOCLDY    73  33  23 S7        29.78S
NEEDLES        CLOUDY    77  27  15 W6        29.79S
$$

NVZ020-UTZ003-180900-
SOUTHERN NEVADA-UTAH

CITY           SKY/WX    TMP DP  RH WIND       PRES   REMARKS
LAS VEGAS      CLOUDY    75  24  15 S9        29.77S
SALT LAKE CITY CLOUDY    64  28  25 S16G23    29.81S
$$

NMZ009-TXZ055-180900-
NEW MEXICO-WEST TEXAS

CITY           SKY/WX    TMP DP  RH WIND       PRES   REMARKS
ALBUQUERQUE    PTCLDY    53  26  35 NW6       30.16S
EL PASO        MOCLDY    62  29  28 E8        30.10F
$$


........................KEY........................
SKY/WX - SKY CONDITION/WEATHER
TMP    - TEMPERATURE IN FAHRENHEIT
DP     - DEW POINT IN FAHRENHEIT
RH     - RELATIVE HUMIDITY IN PERCENT
WIND   - DIRECTION AND SPEED IN MILES PER HOUR (MPH)
VRB    - VARIABLE WIND DIRECTION
PRES   - MEAN SEA LEVEL PRESSURE IN INCHES OF MERCURY
         F - FALLING PRESSURE   R - RISING PRESSURE
         S - STEADY PRESSURE
VSB    - VISIBILITY IN MILES
HX     - HEAT INDEX IN FAHRENHEIT
WCI    - WIND CHILL INDEX IN FAHRENHEIT
TC     - TEMPERATURE IN CELSIUS WHICH IS ALSO KNOWN AS
         TEMPERATURE IN CENTIGRADE
AFB    - AIR FORCE BASE
         LUKE AFB IS LUKE AIR FORCE BASE
         DAVIS-MONTHAN IS DAVIS-MONTHAN AIR FORCE BASE
NAS    - NAVAL AIR STATION
         EL CENTRO NAS IS EL CENTRO NAVAL AIR STATION
N/A    - NOT AVAILABLE



USA.gov is the U.S. government's official web portal to all federal, state and local government web resources and services.